TIME,DELAY(SENSOR),PRES,OXYGEN,RAWTEMP,T(OPTODE),TCPHASE,FLUOR,BETA(BETA700),BETA(BETA412),BETA(BETA440),CDOM,C(CSC),ED(ED411.90),ED(ED443.80),ED(ED489.40),ED(ED554.70),LU(LU412.20),LU(LU443.80),LU(LU489.40),LU(LU555.00),COMP,TILTX,TILTY,CHECK
1363386028,5806,861.4500122070312000,186.0227966308593800,488.6752929687500000,7.8804101943969730,38.5966682434082000,76,619,96,78,79,11502,2146962267,2147518171,2147291492,2147512713,2147086838,2146921792,2147713874,2147119817,2749,-1,8,51397
1363389624,5806,962.2899780273438000,239.7913055419922000,551.1741943359375000,5.9325809478759770,36.5734901428222660,75,600,97,78,81,11501,2146960914,2147517248,2147300150,2147523876,2147086436,2146914221,2147728347,2147119670,2545,-1,8,45284
1363393224,5806,991.9699707031250000,252.0119018554687500,560.2824096679688000,5.6462731361389160,36.1290397644043000,76,603,97,79,82,11499,2146963556,2147517110,2147302893,2147525650,2147086253,2146918464,2147727277,2147118162,2962,-1,8,34699
1363396824,5804,990.2299804687500000,255.9658966064453000,561.2318725585938000,5.6163878440856930,35.9557189941406250,77,604,96,78,81,11500,2146962861,2147519305,2147299282,2147523675,2147088603,2146917046,2147726372,2147115364,3040,0,8,41377
1363400424,5808,995.9000244140625000,261.6621093750000000,565.4542846679688000,5.4833979606628420,35.7628784179687500,76,607,97,78,80,11498,2146964708,2147517284,2147300800,2147527387,2147086326,2146918171,2147728246,2147120265,3596,-1,8,23120
1363404024,5804,995.6199951171875000,261.3203125000000000,565.5947875976562000,5.4789700508117680,35.7819404602050800,75,604,98,77,80,11496,2146961462,2147517604,2147301769,2147522441,2147087524,2146918080,2147729810,2147118710,3432,-1,8,19339
1363407624,5807,994.1400146484375000,261.2797851562500000,565.5402221679688000,5.4806919097900390,35.7828788757324200,76,604,98,78,80,11491,2146959305,2147516013,2147298130,2147523181,2147090733,2146919396,2147726729,2147119241,539,0,8,50491
1363411224,5807,1005.7299804687500000,262.9576110839844000,565.6362304687500000,5.4776649475097660,35.7057418823242200,74,604,98,112,80,11491,2146962057,2147515885,2147301915,2147524507,2147089289,2146919259,2147733522,2147120384,109,-1,8,29730
1363414824,5804,1006.1699829101562000,261.5168151855469000,564.6176757812500000,5.5097599029541020,35.7543983459472660,75,601,101,78,80,11492,2146962816,2147519204,2147302144,2147524489,2147088164,2146912896,2147730377,2147118070,3319,-1,8,31427
1363418424,5805,1014.0200195312500000,261.2874145507812500,563.8126220703125000,5.5351238250732420,35.7507896423339840,74,601,96,79,80,11446,2146963035,2147516105,2147301138,2147523657,2147088822,2146914898,2147732123,2147116918,3435,-1,8,16741
1363422024,5806,1008.8099975585938000,257.1329040527344000,562.3109741210938000,5.5824131965637210,35.9193305969238300,76,599,96,79,79,11444,2146964233,2147517696,2147302491,2147521910,2147087570,2146919094,2147730331,2147118363,3320,-1,8,7638
1363425624,5804,1013.8800048828125000,259.5127868652344000,562.2167968750000000,5.5853810310363770,35.8049697875976560,75,601,97,77,81,11440,2146962816,2147520274,2147303771,2147524553,2147086253,2146920950,2147731940,2147119314,3394,-1,8,23409
1363429224,5807,1010.9600219726562000,259.3866882324219000,563.2590942382812000,5.5525569915771480,35.8295707702636700,76,600,97,78,81,11443,2146961691,2147513828,2147302153,2147522724,2147089307,2146914697,2147732022,2147118025,3528,-1,9,16736
1363432824,5805,1014.7100219726562000,255.9221954345703000,561.6212768554688000,5.6041297912597660,35.9649505615234400,75,603,97,78,81,11425,2146963474,2147520201,2147303451,2147520192,2147086902,2146915163,2147728338,2147119707,3149,0,8,10770
1363436424,5806,1012.6199951171875000,255.8522033691406200,561.7885742187500000,5.5988640785217285,35.9710502624511700,75,603,97,78,80,11438,2146961206,2147521325,2147301824,2147525412,2147089152,2146916324,2147726710,2147119131,3093,-1,8,4207
1363440024,5806,1023.6300048828125000,256.6867065429687500,560.8574829101562000,5.6281700134277340,35.9142799377441400,75,601,98,79,80,11441,2146961956,2147516982,2147299072,2147524489,2147088356,2146914002,2147729581,2147118436,110,0,8,39144
1363443624,5808,1023.2500000000000000,255.3507995605468800,560.5407714843750000,5.6381421089172360,35.9719505310058600,75,602,97,78,81,11439,2146961197,2147520146,2147304896,2147529865,2147089718,2146920457,2147729426,2147118272,268,-1,8,16005
1363447224,5805,1014.1099853515625000,255.1501007080078000,561.5062866210938000,5.6077480316162110,35.9998512268066400,74,601,97,79,80,11435,2146962084,2147519634,2147302646,2147524242,2147086262,2146917824,2147730249,2147118226,3541,-1,8,5853
1363450824,5808,1016.7899780273438000,257.6134033203125000,561.7390747070312000,5.6004199981689450,35.8859901428222660,74,603,97,78,79,11438,2146963584,2147518262,2147301531,2147523190,2147087670,2146916297,2147726043,2147117997,3577,0,8,64421
1363454424,5804,1018.9699707031250000,257.3044128417969000,561.7177734375000000,5.6010909080505370,35.9005393981933600,74,603,97,81,80,11437,2146966134,2147519186,2147303844,2147522057,2147085979,2146920978,2147729097,2147118281,3500,0,8,55720
1363458024,5807,1021.5700073242188000,256.0580139160156000,560.7722778320312000,5.6308560371398930,35.9428405761718750,75,605,97,78,80,11436,2146966080,2147520228,2147301878,2147525366,2147088539,2146917065,2147724754,2147120530,3546,0,8,37469
1363461624,5805,1018.2000122070312000,256.0213012695312500,560.3054809570312000,5.6455459594726560,35.9361114501953100,76,604,97,78,80,11433,2146963419,2147518354,2147303058,2147524086,2147087817,2146919570,2147725778,2147118674,174,-1,8,15770
1363465224,5806,1021.6699829101562000,254.7451019287109400,560.8366699218750000,5.6288280487060550,36.0068397521972660,75,607,98,79,81,11435,2146967762,2147522825,2147303616,2147524196,2147088850,2146909659,2147726500,2147120438,180,-1,8,5264
1363468824,5804,1020.2999877929688000,256.2503967285156000,560.5216064453125000,5.6387438774108890,35.9288597106933600,74,606,97,79,81,11426,2146962752,2147521883,2147302089,2147521033,2147086518,2146920009,2147726363,2147119616,3156,0,8,4993
1363472424,5805,1026.0899658203125000,255.8975982666015600,560.8679809570312000,5.6278400421142580,35.9523010253906250,75,610,97,79,80,11435,2146963419,2147520649,2147301110,2147523657,2147089280,2146918902,2147727579,2147118692,509,-1,8,14827
1363476024,5805,1022.4299926757812000,255.6423950195312500,560.7634887695312000,5.6311302185058590,35.9621009826660160,75,607,97,79,80,11432,2146964242,2147517467,2147299264,2147526390,2147086290,2146915108,2147728466,2147117074,3325,0,8,13910
1363479624,5807,1021.1400146484375000,257.6365051269531000,561.6027221679688000,5.6047129631042480,35.8825798034668000,77,614,97,78,79,11435,2146964662,2147516873,2147302729,2147523666,2147087469,2146924132,2147729737,2147116946,3507,-1,8,48153
1363483224,5806,1022.9099731445312000,257.6495056152344000,562.4019165039062000,5.5795521736145020,35.8963012695312500,77,617,96,79,81,11428,2146960768,2147515044,2147302290,2147524187,2147087945,2146915181,2147726802,2147120786,3004,-1,8,5565
1363486824,5807,1025.4100341796875000,256.8391113281250000,560.8845214843750000,5.6273250579833980,35.9075508117675800,75,610,96,76,80,11431,2146960438,2147517001,2147299922,2147524635,2147086701,2146918509,2147730313,2147120420,2751,-1,8,57796
1363490424,5805,1025.8000488281250000,256.8164978027344000,560.9990234375000000,5.6237201690673830,35.9105110168457000,76,608,97,77,80,11428,2146964324,2147517851,2147301202,2147526262,2147087222,2146917613,2147724608,2147117357,2858,0,8,2006
1363494024,5803,1026.2600097656250000,256.2094116210937500,560.5919799804688000,5.6365299224853520,35.9317703247070300,75,614,97,77,81,11431,2146964342,2147515730,2147301860,2147522267,2147088475,2146915721,2147727049,2147119250,3282,0,8,29566
1363497624,5804,1027.1899414062500000,255.8385925292968800,560.6148071289062000,5.6358108520507810,35.9497299194335940,75,611,99,78,80,11434,2146964571,2147519936,2147299538,2147524672,2147086921,2146918253,2147732726,2147122057,3446,0,8,26252
1363501224,5804,1027.5400390625000000,256.5144042968750000,560.5133056640625000,5.6390061378479000,35.9158897399902340,76,618,97,78,80,11432,2146963538,2147517504,2147302464,2147524809,2147088310,2146917504,2147728722,2147117513,3146,-1,8,37330
1363504824,5806,1032.5100097656250000,254.7897949218750000,558.9351196289062000,5.6886649131774900,35.9700317382812500,75,616,97,78,80,11428,2146964818,2147520640,2147301696,2147523620,2147087286,2146918336,2147728128,2147121435,2486,-1,8,44376
1363508424,5805,1030.3000488281250000,254.5682983398437500,559.2866210937500000,5.6776070594787600,35.9868011474609400,75,613,97,78,79,11414,2146963200,2147517750,2147299648,2147522450,2147087643,2146915620,2147723520,2147119332,2955,-1,8,25986
1363512024,5805,1033.5799560546875000,254.3515930175781200,558.9229125976562000,5.6890511512756350,35.9906311035156250,75,613,97,79,81,11414,2146961938,2147519716,2147302016,2147521764,2147086080,2146915867,2147728045,2147120064,3224,-1,8,62102
1363515624,5805,1025.4799804687500000,250.7266998291015600,555.5159912109375000,5.7961850166320800,36.1044311523437500,75,612,97,78,80,11413,2146964269,2147519296,2147298715,2147521609,2147086006,2146920182,2147729828,2147121572,3268,-1,8,38611
1363519224,5805,1021.1599731445312000,251.0742034912109400,555.9655151367188000,5.7820549011230470,36.0958900451660160,76,613,97,78,80,11413,2146959049,2147517220,2147301504,2147523849,2147083666,2146921124,2147724196,2147119378,3430,-1,8,61112
1363522824,5807,1016.0300292968750000,251.3880004882812500,558.0377807617188000,5.7168917655944820,36.1182785034179700,76,612,100,77,80,11415,2146965604,2147520265,2147300717,2147523684,2147085046,2146915940,2147725778,2147122541,37,0,8,14476
1363526424,5807,1020.0700073242188000,253.6071014404297000,558.4147949218750000,5.7050337791442870,36.0171508789062500,76,615,97,78,81,11410,2146961773,2147520246,2147300626,2147522989,2147089426,2146919734,2147728493,2147119588,42,-1,8,16799
1363530024,5806,1015.4000244140625000,251.2351989746093800,558.3997192382812000,5.7055068016052250,36.1320495605468750,76,615,97,76,80,11411,2146965101,2147520155,2147299785,2147524461,2147084982,2146915803,2147726884,2147118784,3253,-1,8,5688
1363530956,5808,1016.1900024414062000,252.9582977294922000,558.8609008789062000,5.6909999847412110,36.0566406250000000,76,618,97,79,79,11468,2146963062,2147515913,2147300352,2147522496,2147086656,2146918052,2147723236,2147121563,3134,-1,8,54489
